TOM2MC HEGN-EGNT

Flight info

Callsign TOM2MC
Flight time N/A
Altitude 34000
Route SOLOX1B SOLOX V603 GIDID DCT KAPIT L677 CVO A16 RASDA DCT ANIDE DCT VAXOS DCT BANRO UN128 RIKSO DCT LMO DCT EVIVI/N0458F360 DCT OKANA DCT OKLOP DCT KOTUS DCT BABIT DCT SOGMO DCT SASAL DCT BARUG DCT DEXIT DCT MAPOX L604 BIGGE DCT TENLI DCT MIMVA L602 NALAX L46 RIMTO
Aircraft B738/M-SDE2E3FGHIRWXY/LB1

Departure

Time N/A
Airport Hurghada International Airport (HEGN)

Arrival

Time 2026-05-05 22:06
Airport Newcastle International Airport (EGNT)
Time Latitude Longitude Altitude Speed Heading
2026-05-05 19:07 29.81899 32.32419 34088 ft 437 kts 328°
2026-05-05 19:07 29.84648 32.30926 34084 ft 437 kts 328°
2026-05-05 19:07 29.90158 32.27931 34117 ft 438 kts 328°
2026-05-05 19:08 29.95673 32.24930 34095 ft 438 kts 328°
2026-05-05 19:08 30.00258 32.22432 34087 ft 439 kts 328°
2026-05-05 19:09 30.06699 32.18921 34084 ft 438 kts 328°
2026-05-05 19:09 30.12207 32.15912 34095 ft 437 kts 328°
2026-05-05 19:10 30.17698 32.12910 34092 ft 436 kts 328°
2026-05-05 19:10 30.23183 32.09905 34092 ft 436 kts 328°
2026-05-05 19:11 30.28663 32.06901 34088 ft 435 kts 328°
2026-05-05 19:11 30.34117 32.03909 34089 ft 433 kts 328°
2026-05-05 19:12 30.39559 32.00918 34091 ft 432 kts 328°
2026-05-05 19:12 30.44058 31.98443 34092 ft 430 kts 328°
2026-05-05 19:13 30.50375 31.94962 34095 ft 430 kts 327°
2026-05-05 19:13 30.54860 31.92488 34097 ft 429 kts 327°
2026-05-05 19:14 30.60247 31.89513 34089 ft 428 kts 327°
2026-05-05 19:14 30.66500 31.86056 34093 ft 428 kts 327°
2026-05-05 19:15 30.71873 31.83081 34094 ft 428 kts 327°
2026-05-05 19:15 30.77246 31.80101 34100 ft 429 kts 327°
2026-05-05 19:16 30.81754 31.77598 34099 ft 429 kts 327°
2026-05-05 19:16 30.87104 31.74626 34090 ft 429 kts 327°
2026-05-05 19:17 30.92517 31.71615 34095 ft 428 kts 327°
2026-05-05 19:17 30.97890 31.68622 34094 ft 428 kts 327°
2026-05-05 19:18 31.03219 31.65651 34123 ft 427 kts 327°
2026-05-05 19:18 31.08624 31.62632 34104 ft 427 kts 327°
2026-05-05 19:19 31.13946 31.59656 34089 ft 427 kts 327°
2026-05-05 19:19 31.19301 31.56659 34095 ft 427 kts 327°
2026-05-05 19:20 31.24649 31.53661 34095 ft 426 kts 327°
2026-05-05 19:20 31.28230 31.51651 34099 ft 426 kts 328°
2026-05-05 19:21 31.35346 31.47652 34101 ft 427 kts 328°
2026-05-05 19:21 31.40693 31.44644 34096 ft 426 kts 328°
2026-05-05 19:22 31.45137 31.42141 34097 ft 426 kts 328°
2026-05-05 19:22 31.51376 31.38622 34093 ft 426 kts 328°
2026-05-05 19:23 31.56712 31.35608 34096 ft 425 kts 328°
2026-05-05 19:23 31.62039 31.32595 34097 ft 425 kts 328°
2026-05-05 19:24 31.67330 31.29599 34101 ft 425 kts 328°
2026-05-05 19:24 31.72652 31.26582 34094 ft 425 kts 328°
2026-05-05 19:25 31.77967 31.23563 34098 ft 424 kts 329°
2026-05-05 19:25 31.82383 31.21053 34102 ft 424 kts 329°
2026-05-05 19:26 31.86832 31.18522 34103 ft 424 kts 329°
2026-05-05 19:26 31.93898 31.14496 34099 ft 424 kts 329°
2026-05-05 19:27 31.99202 31.11470 34096 ft 424 kts 329°
2026-05-05 19:27 32.03611 31.08951 34101 ft 424 kts 329°
2026-05-05 19:28 32.09810 31.05404 34103 ft 424 kts 329°
2026-05-05 19:28 32.15113 31.02366 34119 ft 424 kts 329°
2026-05-05 19:29 32.20427 30.99318 34106 ft 425 kts 329°
2026-05-05 19:29 32.25740 30.96266 34099 ft 425 kts 329°
2026-05-05 19:30 32.31057 30.93208 34096 ft 425 kts 329°
2026-05-05 19:30 32.36373 30.90147 34094 ft 425 kts 329°
2026-05-05 19:31 32.41644 30.87108 34093 ft 424 kts 329°
2026-05-05 19:31 32.46949 30.84045 34097 ft 424 kts 329°
2026-05-05 19:32 32.52251 30.80980 34088 ft 423 kts 329°
2026-05-05 19:32 32.57537 30.77920 34087 ft 422 kts 329°
2026-05-05 19:33 32.62812 30.74862 34088 ft 422 kts 329°
2026-05-05 19:33 32.68078 30.71806 34088 ft 421 kts 329°
2026-05-05 19:34 32.73338 30.68748 34085 ft 421 kts 329°
2026-05-05 19:35 32.81218 30.64161 34081 ft 420 kts 329°
2026-05-05 19:35 32.86461 30.61103 34085 ft 419 kts 329°
2026-05-05 19:36 32.91695 30.58047 34087 ft 419 kts 329°
2026-05-05 19:36 32.96927 30.54988 34081 ft 419 kts 329°
2026-05-05 19:37 33.02123 30.51946 34088 ft 419 kts 329°
2026-05-05 19:37 33.07351 30.48881 34083 ft 419 kts 329°
2026-05-05 19:38 33.12579 30.45812 34079 ft 419 kts 329°
2026-05-05 19:38 33.17804 30.42741 34073 ft 418 kts 329°
2026-05-05 19:39 33.23024 30.39669 34070 ft 418 kts 329°
2026-05-05 19:39 33.28244 30.36592 34072 ft 418 kts 329°
2026-05-05 19:40 33.33457 30.33516 34070 ft 418 kts 329°
2026-05-05 19:40 33.38659 30.30442 34070 ft 417 kts 329°
2026-05-05 19:41 33.43850 30.27370 34073 ft 416 kts 329°
2026-05-05 19:41 33.49033 30.24299 34068 ft 415 kts 329°
2026-05-05 19:42 33.54207 30.21229 34085 ft 415 kts 329°
2026-05-05 19:42 33.59382 30.18154 34072 ft 415 kts 329°
2026-05-05 19:43 33.64547 30.15081 34065 ft 414 kts 329°
2026-05-05 19:43 33.69678 30.12024 34065 ft 414 kts 329°
2026-05-05 19:44 33.74870 30.08927 34068 ft 414 kts 330°
2026-05-05 19:44 33.79993 30.05867 34085 ft 414 kts 330°
2026-05-05 19:45 33.85153 30.02780 34067 ft 414 kts 330°
2026-05-05 19:45 33.90311 29.99691 34061 ft 414 kts 330°
2026-05-05 19:46 33.95466 29.96599 34062 ft 414 kts 330°
2026-05-05 19:46 34.00621 29.93503 34063 ft 414 kts 330°
2026-05-05 19:47 34.05780 29.90401 34060 ft 414 kts 330°
2026-05-05 19:47 34.10941 29.87292 34067 ft 415 kts 330°
2026-05-05 19:48 34.16105 29.84178 34057 ft 415 kts 330°
2026-05-05 19:48 34.21269 29.81059 34056 ft 415 kts 330°
2026-05-05 19:49 34.26427 29.77941 34053 ft 414 kts 330°
2026-05-05 19:49 34.31545 29.74841 34054 ft 414 kts 330°
2026-05-05 19:50 34.36693 29.71719 34056 ft 414 kts 330°
2026-05-05 19:50 34.41006 29.69100 34044 ft 414 kts 330°
2026-05-05 19:51 34.46984 29.65466 34058 ft 413 kts 330°
2026-05-05 19:51 34.52123 29.62337 34051 ft 413 kts 330°
2026-05-05 19:52 34.57262 29.59203 34039 ft 413 kts 330°
2026-05-05 19:52 34.62398 29.56066 34044 ft 413 kts 330°
2026-05-05 19:53 34.67529 29.52929 34049 ft 413 kts 330°
2026-05-05 19:53 34.72658 29.49788 34045 ft 413 kts 330°
2026-05-05 19:54 34.77749 29.46666 34043 ft 412 kts 330°
2026-05-05 19:54 34.82867 29.43523 34046 ft 412 kts 330°
2026-05-05 19:55 34.87979 29.40380 34067 ft 412 kts 330°
2026-05-05 19:55 34.93092 29.37230 34044 ft 412 kts 330°
2026-05-05 19:56 34.98210 29.34073 34038 ft 412 kts 329°
2026-05-05 19:56 35.03008 29.30330 34048 ft 409 kts 322°
2026-05-05 19:57 35.07611 29.26246 34045 ft 409 kts 322°
2026-05-05 19:57 35.12211 29.22169 34036 ft 409 kts 322°
2026-05-05 19:58 35.16825 29.18110 34056 ft 409 kts 322°
2026-05-05 19:58 35.21420 29.14080 34036 ft 409 kts 322°
2026-05-05 19:59 35.26051 29.10018 34036 ft 410 kts 322°
2026-05-05 19:59 35.30681 29.05951 34038 ft 410 kts 322°
2026-05-05 20:00 35.35307 29.01882 34038 ft 409 kts 322°
2026-05-05 20:00 35.39181 28.98469 34034 ft 409 kts 322°
2026-05-05 20:01 35.44555 28.93729 34056 ft 409 kts 322°
2026-05-05 20:01 35.49172 28.89649 34042 ft 409 kts 322°
2026-05-05 20:02 35.53786 28.85566 34032 ft 409 kts 322°
2026-05-05 20:02 35.58395 28.81482 34030 ft 408 kts 322°
2026-05-05 20:03 35.62999 28.77397 34029 ft 408 kts 322°
2026-05-05 20:03 35.67598 28.73309 34027 ft 408 kts 322°
2026-05-05 20:04 35.71417 28.69910 34027 ft 407 kts 322°
2026-05-05 20:04 35.76785 28.65126 34030 ft 408 kts 322°
2026-05-05 20:05 35.80602 28.61719 34018 ft 407 kts 322°
2026-05-05 20:05 35.85184 28.57625 34024 ft 407 kts 322°
2026-05-05 20:06 35.89766 28.53524 34026 ft 407 kts 322°
2026-05-05 20:06 35.94339 28.49425 34025 ft 406 kts 322°
2026-05-05 20:07 35.98915 28.45317 34025 ft 406 kts 322°
2026-05-05 20:07 36.03482 28.41212 34034 ft 407 kts 322°
2026-05-05 20:08 36.08057 28.37094 34034 ft 407 kts 322°
2026-05-05 20:08 36.12627 28.32973 34021 ft 406 kts 323°
2026-05-05 20:09 36.17194 28.28850 34013 ft 406 kts 323°
2026-05-05 20:09 36.21759 28.24721 34013 ft 406 kts 323°
2026-05-05 20:10 36.26319 28.20592 34008 ft 406 kts 323°
2026-05-05 20:10 36.30879 28.16456 34025 ft 406 kts 323°
2026-05-05 20:11 36.35411 28.12339 34027 ft 407 kts 323°
2026-05-05 20:11 36.39978 28.08184 34020 ft 408 kts 322°
2026-05-05 20:12 36.44549 28.04020 34016 ft 407 kts 323°
2026-05-05 20:12 36.49162 27.99914 34014 ft 408 kts 327°
2026-05-05 20:13 36.54321 27.96933 34027 ft 410 kts 335°
2026-05-05 20:13 36.59603 27.94238 34032 ft 411 kts 335°
2026-05-05 20:14 36.64875 27.91501 34026 ft 411 kts 335°
2026-05-05 20:14 36.70154 27.88744 34028 ft 411 kts 335°
2026-05-05 20:15 36.75424 27.85953 34024 ft 411 kts 334°
2026-05-05 20:15 36.80685 27.83126 34042 ft 412 kts 334°
2026-05-05 20:16 36.85920 27.80311 34039 ft 412 kts 335°
2026-05-05 20:16 36.91181 27.77481 34046 ft 411 kts 335°
2026-05-05 20:17 36.96428 27.74658 34045 ft 410 kts 334°
2026-05-05 20:17 37.01667 27.71834 34054 ft 410 kts 334°
2026-05-05 20:18 37.06901 27.69008 34047 ft 409 kts 334°
2026-05-05 20:18 37.12131 27.66180 34057 ft 410 kts 335°
2026-05-05 20:19 37.17364 27.63347 34050 ft 409 kts 335°
2026-05-05 20:19 37.22589 27.60513 34048 ft 409 kts 335°
2026-05-05 20:20 37.27808 27.57678 34045 ft 409 kts 335°
2026-05-05 20:20 37.33057 27.54904 34048 ft 409 kts 335°
2026-05-05 20:21 37.38318 27.52188 34051 ft 409 kts 335°
2026-05-05 20:21 37.43574 27.49457 34050 ft 409 kts 335°
2026-05-05 20:22 37.48833 27.46711 34041 ft 409 kts 335°
2026-05-05 20:22 37.54034 27.43828 34048 ft 408 kts 333°
2026-05-05 20:23 37.59168 27.40779 34073 ft 408 kts 333°
2026-05-05 20:23 37.64330 27.37782 34062 ft 409 kts 334°
2026-05-05 20:24 37.69512 27.34945 34040 ft 408 kts 335°
2026-05-05 20:24 37.74720 27.32132 34053 ft 407 kts 335°
2026-05-05 20:25 37.79923 27.29299 34061 ft 407 kts 335°
2026-05-05 20:25 37.85127 27.26446 34063 ft 408 kts 335°
2026-05-05 20:26 37.90343 27.23580 34051 ft 409 kts 335°
2026-05-05 20:26 37.95560 27.20709 34057 ft 409 kts 335°
2026-05-05 20:27 38.00772 27.17837 34064 ft 408 kts 335°
2026-05-05 20:27 38.05983 27.14961 34061 ft 408 kts 335°
2026-05-05 20:28 38.11185 27.12083 34073 ft 408 kts 335°
2026-05-05 20:28 38.16397 27.09199 34065 ft 408 kts 335°
2026-05-05 20:29 38.21599 27.06315 34076 ft 408 kts 335°
2026-05-05 20:29 38.26794 27.03431 34070 ft 407 kts 335°
2026-05-05 20:30 38.31837 27.00291 34077 ft 405 kts 327°
2026-05-05 20:30 38.36253 26.95760 34069 ft 406 kts 320°
2026-05-05 20:31 38.40506 26.91011 34065 ft 407 kts 320°
2026-05-05 20:31 38.44767 26.86278 34049 ft 407 kts 320°
2026-05-05 20:32 38.49020 26.81563 34062 ft 407 kts 320°
2026-05-05 20:32 38.53299 26.76816 34065 ft 407 kts 320°
2026-05-05 20:33 38.57575 26.72063 34062 ft 408 kts 320°
2026-05-05 20:33 38.61855 26.67298 34068 ft 408 kts 320°
2026-05-05 20:34 38.66138 26.62523 34066 ft 409 kts 320°
2026-05-05 20:34 38.70425 26.57733 34066 ft 409 kts 320°
2026-05-05 20:35 38.74712 26.52936 34057 ft 409 kts 320°
2026-05-05 20:35 38.79000 26.48130 34067 ft 409 kts 320°
2026-05-05 20:36 38.83288 26.43317 34068 ft 410 kts 320°
2026-05-05 20:36 38.87591 26.38619 34069 ft 410 kts 321°
2026-05-05 20:37 38.91968 26.33923 34077 ft 410 kts 321°
2026-05-05 20:37 38.96350 26.29205 34069 ft 411 kts 321°
2026-05-05 20:38 39.00722 26.24475 34045 ft 411 kts 321°
2026-05-05 20:38 39.05086 26.19740 34060 ft 411 kts 321°
2026-05-05 20:39 39.09452 26.14993 34072 ft 410 kts 321°
2026-05-05 20:39 39.13810 26.10247 34061 ft 411 kts 321°
2026-05-05 20:40 39.18169 26.05491 34073 ft 411 kts 321°
2026-05-05 20:40 39.20353 26.03105 34181 ft 412 kts 321°
2026-05-05 20:40 39.22538 26.00717 34410 ft 411 kts 321°
2026-05-05 20:40 39.24717 25.98333 34666 ft 410 kts 321°
2026-05-05 20:41 39.26891 25.95951 34903 ft 409 kts 321°
2026-05-05 20:41 39.29062 25.93572 35052 ft 410 kts 321°
2026-05-05 20:41 39.31239 25.91185 35216 ft 411 kts 321°
2026-05-05 20:41 39.33422 25.88789 35339 ft 413 kts 321°
2026-05-05 20:42 39.35618 25.86376 35471 ft 414 kts 321°
2026-05-05 20:42 39.37810 25.83965 35658 ft 414 kts 320°
2026-05-05 20:42 39.40002 25.81552 35863 ft 414 kts 320°
2026-05-05 20:42 39.42192 25.79140 36027 ft 413 kts 320°
2026-05-05 20:43 39.44383 25.76724 36056 ft 416 kts 320°
2026-05-05 20:43 39.48760 25.71892 36065 ft 416 kts 320°
2026-05-05 20:44 39.53146 25.67041 36061 ft 414 kts 320°
2026-05-05 20:44 39.57484 25.62236 36057 ft 412 kts 320°
2026-05-05 20:45 39.64027 25.54972 36062 ft 410 kts 320°
2026-05-05 20:45 39.68357 25.50154 36060 ft 410 kts 320°
2026-05-05 20:46 39.72649 25.45372 36072 ft 410 kts 320°
2026-05-05 20:46 39.76980 25.40537 36063 ft 410 kts 320°
2026-05-05 20:47 39.81309 25.35695 36061 ft 411 kts 320°
2026-05-05 20:47 39.89791 25.26185 36061 ft 412 kts 320°
2026-05-05 20:48 40.06989 25.06220 36049 ft 415 kts 319°
2026-05-05 20:48 40.24135 24.86055 36049 ft 414 kts 319°
2026-05-05 20:49 40.41265 24.65779 36057 ft 415 kts 319°
2026-05-05 20:49 40.58376 24.45378 36047 ft 416 kts 319°
2026-05-05 20:50 40.72567 24.28346 36045 ft 415 kts 318°
2026-05-05 20:50 40.92498 24.04250 36062 ft 415 kts 318°
2026-05-05 20:51 41.09491 23.83543 36037 ft 414 kts 318°
2026-05-05 20:51 41.26357 23.62838 36034 ft 413 kts 317°
2026-05-05 20:52 41.40428 23.45615 36033 ft 414 kts 322°
2026-05-05 20:52 41.54226 23.36587 36077 ft 413 kts 333°
2026-05-05 20:52 41.64533 23.29799 36067 ft 413 kts 332°
2026-05-05 20:53 41.74902 23.22938 35961 ft 416 kts 333°
2026-05-05 20:53 41.85264 23.16121 36040 ft 415 kts 333°
2026-05-05 20:53 42.05952 23.02400 36054 ft 415 kts 332°
2026-05-05 20:54 42.23197 22.90885 36052 ft 417 kts 332°
2026-05-05 20:54 42.43997 22.76902 36038 ft 418 kts 332°
2026-05-05 20:55 42.64856 22.62775 36078 ft 419 kts 332°
2026-05-05 20:55 42.85731 22.48478 35967 ft 420 kts 329°
2026-05-05 20:56 43.05466 22.31580 36020 ft 419 kts 326°
2026-05-05 20:56 43.25277 22.14634 36008 ft 421 kts 326°
2026-05-05 20:57 43.45143 21.97497 36028 ft 422 kts 326°
2026-05-05 20:57 43.65049 21.80190 36018 ft 423 kts 326°
2026-05-05 20:58 43.85007 21.62699 35996 ft 425 kts 326°
2026-05-05 20:58 44.05043 21.44996 35962 ft 428 kts 326°
2026-05-05 20:59 44.24546 21.26384 35966 ft 428 kts 317°
2026-05-05 20:59 44.42322 21.04272 35968 ft 429 kts 318°
2026-05-05 21:00 44.60371 20.82421 35988 ft 429 kts 317°
2026-05-05 21:01 44.96739 20.37683 35969 ft 433 kts 317°
2026-05-05 21:01 45.14794 20.15182 35964 ft 432 kts 317°
2026-05-05 21:02 45.32781 19.92483 35975 ft 432 kts 313°
2026-05-05 21:02 45.48376 19.66891 35977 ft 431 kts 309°
2026-05-05 21:03 45.64161 19.41094 35978 ft 431 kts 309°
2026-05-05 21:03 45.79851 19.15159 35984 ft 431 kts 309°
2026-05-05 21:04 45.95474 18.89012 35989 ft 431 kts 307°
2026-05-05 21:04 46.10356 18.61910 35979 ft 432 kts 307°
2026-05-05 21:05 46.25272 18.34713 35979 ft 433 kts 306°
2026-05-05 21:05 46.40162 18.07271 35957 ft 434 kts 306°
2026-05-05 21:06 46.55024 17.79606 35953 ft 435 kts 306°
2026-05-05 21:06 46.70189 17.52129 35934 ft 436 kts 308°
2026-05-05 21:07 46.85646 17.24858 35932 ft 436 kts 307°
2026-05-05 21:07 47.01021 16.97316 35895 ft 437 kts 307°
2026-05-05 21:08 47.16332 16.69619 35880 ft 437 kts 307°
2026-05-05 21:08 47.31615 16.41749 35869 ft 437 kts 307°
2026-05-05 21:09 47.47096 16.13925 35832 ft 439 kts 307°
2026-05-05 21:09 47.62503 15.85863 35859 ft 439 kts 306°
2026-05-05 21:10 47.77886 15.57553 35813 ft 442 kts 306°
2026-05-05 21:10 47.93153 15.29197 35807 ft 442 kts 306°
2026-05-05 21:11 48.08595 15.00530 35802 ft 445 kts 305°
2026-05-05 21:11 48.24052 14.71478 35805 ft 446 kts 305°
2026-05-05 21:12 48.39497 14.42141 35824 ft 449 kts 305°
2026-05-05 21:12 48.54945 14.12471 35829 ft 450 kts 304°
2026-05-05 21:13 48.70364 13.82526 35838 ft 451 kts 303°
2026-05-05 21:13 48.85957 13.52562 35814 ft 455 kts 304°
2026-05-05 21:14 49.01759 13.22497 35846 ft 456 kts 303°
2026-05-05 21:14 49.17583 12.91936 35835 ft 460 kts 303°
2026-05-05 21:15 49.33397 12.61052 35807 ft 461 kts 303°
2026-05-05 21:15 49.49148 12.29929 35826 ft 462 kts 303°
2026-05-05 21:16 49.64883 11.98466 35825 ft 464 kts 303°
2026-05-05 21:16 49.80588 11.66693 35822 ft 466 kts 303°
2026-05-05 21:17 49.96240 11.34634 35816 ft 467 kts 304°
2026-05-05 21:17 50.11872 11.02226 35840 ft 469 kts 304°
2026-05-05 21:18 50.27472 10.69486 35815 ft 471 kts 304°
2026-05-05 21:18 50.43046 10.36384 35812 ft 473 kts 303°
2026-05-05 21:19 50.58564 10.02983 35829 ft 474 kts 303°
2026-05-05 21:19 50.74055 9.69209 35839 ft 476 kts 303°
2026-05-05 21:20 50.89379 9.35365 35824 ft 477 kts 303°
2026-05-05 21:20 51.04710 9.01057 35827 ft 476 kts 302°
2026-05-05 21:21 51.20489 8.67092 35812 ft 478 kts 307°
2026-05-05 21:21 51.37078 8.33636 35806 ft 476 kts 302°
2026-05-05 21:22 51.51921 7.98914 35819 ft 474 kts 302°
2026-05-05 21:22 51.66895 7.64097 35832 ft 472 kts 301°
2026-05-05 21:23 51.81686 7.29150 35876 ft 471 kts 301°
2026-05-05 21:23 51.96306 6.94147 35855 ft 469 kts 301°
2026-05-05 21:24 52.10773 6.59032 35876 ft 466 kts 300°
2026-05-05 21:24 52.25002 6.23933 35873 ft 462 kts 298°
2026-05-05 21:25 52.36345 5.86601 35944 ft 460 kts 292°
2026-05-05 21:25 52.42009 5.67847 36942 ft 456 kts 293°
2026-05-05 21:25 52.47655 5.49131 37975 ft 450 kts 293°
2026-05-05 21:26 52.58795 5.11550 37928 ft 460 kts 293°
2026-05-05 21:26 52.69626 4.74470 37914 ft 449 kts 292°
2026-05-05 21:27 52.80154 4.37847 37924 ft 436 kts 292°
2026-05-05 21:27 52.90408 4.01603 38000 ft 443 kts 292°
2026-05-05 21:28 53.00929 3.63839 37989 ft 456 kts 291°
2026-05-05 21:28 53.11106 3.25342 37901 ft 443 kts 281°
2026-05-05 21:29 53.15920 2.86156 37941 ft 430 kts 280°
2026-05-05 21:29 53.20965 2.47132 38009 ft 435 kts 280°
2026-05-05 21:30 53.25946 2.06933 38005 ft 448 kts 279°
2026-05-05 21:30 53.30841 1.66255 37975 ft 443 kts 279°
2026-05-05 21:31 53.32477 1.52371 37990 ft 437 kts 279°
2026-05-05 21:31 53.33791 1.42482 37993 ft 434 kts 282°
2026-05-05 21:32 53.35261 1.32704 38000 ft 432 kts 282°
2026-05-05 21:32 53.36708 1.22943 38004 ft 432 kts 282°
2026-05-05 21:33 53.38120 1.13169 38000 ft 432 kts 281°
2026-05-05 21:33 53.39516 1.03366 38005 ft 434 kts 281°
2026-05-05 21:34 53.40911 0.93499 38007 ft 436 kts 281°
2026-05-05 21:34 53.42307 0.83572 38011 ft 438 kts 281°
2026-05-05 21:35 53.43701 0.73591 38023 ft 441 kts 281°
2026-05-05 21:35 53.45093 0.63564 38021 ft 442 kts 281°
2026-05-05 21:36 53.46480 0.53505 38022 ft 443 kts 281°
2026-05-05 21:36 53.47629 0.45134 38018 ft 443 kts 281°
2026-05-05 21:37 53.49005 0.35050 38027 ft 443 kts 281°
2026-05-05 21:37 53.50381 0.24960 38027 ft 443 kts 281°
2026-05-05 21:38 53.51752 0.14865 38032 ft 443 kts 281°
2026-05-05 21:38 53.53104 0.04783 38032 ft 442 kts 281°
2026-05-05 21:39 53.54430 -0.05292 38042 ft 441 kts 281°
2026-05-05 21:39 53.55748 -0.15368 38051 ft 441 kts 281°
2026-05-05 21:40 53.57059 -0.25439 38047 ft 441 kts 281°
2026-05-05 21:40 53.58361 -0.35507 38051 ft 440 kts 281°
2026-05-05 21:41 53.59658 -0.45576 38050 ft 440 kts 281°
2026-05-05 21:41 53.60953 -0.55693 37731 ft 445 kts 281°
2026-05-05 21:42 53.61592 -0.60714 37469 ft 443 kts 281°
2026-05-05 21:42 53.62234 -0.65770 37199 ft 441 kts 281°
2026-05-05 21:42 53.62871 -0.70809 36934 ft 440 kts 281°
2026-05-05 21:42 53.63507 -0.75859 36684 ft 440 kts 281°
2026-05-05 21:43 53.64139 -0.80892 36436 ft 439 kts 281°
2026-05-05 21:43 53.64769 -0.85932 36184 ft 439 kts 281°
2026-05-05 21:43 53.65396 -0.90963 35939 ft 439 kts 281°
2026-05-05 21:43 53.66022 -0.96000 35691 ft 439 kts 281°
2026-05-05 21:44 53.66648 -1.01052 35449 ft 439 kts 281°
2026-05-05 21:44 53.67271 -1.06090 35207 ft 439 kts 281°
2026-05-05 21:44 53.67892 -1.11134 34972 ft 440 kts 281°
2026-05-05 21:44 53.68513 -1.16191 34729 ft 440 kts 281°
2026-05-05 21:45 53.69131 -1.21244 34490 ft 441 kts 281°
2026-05-05 21:45 53.69748 -1.26307 34019 ft 440 kts 281°
2026-05-05 21:45 53.70363 -1.31369 33331 ft 440 kts 281°
2026-05-05 21:45 53.70985 -1.36431 32616 ft 440 kts 283°
2026-05-05 21:46 53.72126 -1.41218 31908 ft 442 kts 301°
2026-05-05 21:46 53.74019 -1.45267 31254 ft 445 kts 314°
2026-05-05 21:46 53.76501 -1.48414 30524 ft 449 kts 326°
2026-05-05 21:46 53.79187 -1.51135 29802 ft 450 kts 327°
2026-05-05 21:47 53.81877 -1.53776 29222 ft 444 kts 327°
2026-05-05 21:47 53.84532 -1.56395 28677 ft 439 kts 327°
2026-05-05 21:47 53.87140 -1.59008 28152 ft 433 kts 326°
2026-05-05 21:47 53.89712 -1.61622 27614 ft 428 kts 326°
2026-05-05 21:48 53.92247 -1.64226 27087 ft 424 kts 326°
2026-05-05 21:48 53.94754 -1.66813 26553 ft 420 kts 326°
2026-05-05 21:48 53.97206 -1.69346 26026 ft 416 kts 326°
2026-05-05 21:48 53.99702 -1.71926 25531 ft 413 kts 325°
2026-05-05 21:49 54.02112 -1.74418 25010 ft 410 kts 325°
2026-05-05 21:49 54.04550 -1.76940 24401 ft 411 kts 326°
2026-05-05 21:49 54.06993 -1.79467 23799 ft 412 kts 326°
2026-05-05 21:49 54.09446 -1.82008 23078 ft 413 kts 326°
2026-05-05 21:50 54.11915 -1.84490 22400 ft 412 kts 331°
2026-05-05 21:50 54.14656 -1.85902 21801 ft 415 kts 349°
2026-05-05 21:50 54.17546 -1.85839 21154 ft 418 kts
2026-05-05 21:50 54.20397 -1.84940 20546 ft 416 kts
2026-05-05 21:51 54.23234 -1.83976 19928 ft 415 kts
2026-05-05 21:51 54.26052 -1.83025 19295 ft 412 kts
2026-05-05 21:51 54.28862 -1.82103 18679 ft 410 kts
2026-05-05 21:51 54.31661 -1.81207 18022 ft 408 kts
2026-05-05 21:52 54.37202 -1.79460 16722 ft 401 kts
2026-05-05 21:52 54.39934 -1.78599 16104 ft 397 kts
2026-05-05 21:52 54.42647 -1.77742 15310 ft 398 kts
2026-05-05 21:53 54.45374 -1.76880 14530 ft 399 kts
2026-05-05 21:53 54.48100 -1.76017 13707 ft 395 kts
2026-05-05 21:53 54.50764 -1.75170 12838 ft 384 kts
2026-05-05 21:53 54.53349 -1.74347 12077 ft 372 kts
2026-05-05 21:54 54.55839 -1.73553 11615 ft 355 kts
2026-05-05 21:54 54.58213 -1.72795 11180 ft 340 kts
2026-05-05 21:54 54.60494 -1.72068 10773 ft 327 kts
2026-05-05 21:54 54.62691 -1.71368 10376 ft 315 kts
2026-05-05 21:55 54.64812 -1.70692 9997 ft 305 kts
2026-05-05 21:55 54.66864 -1.70036 9596 ft 295 kts
2026-05-05 21:55 54.68852 -1.69399 9211 ft 286 kts
2026-05-05 21:55 54.70768 -1.68702 8893 ft 277 kts 13°
2026-05-05 21:56 54.72573 -1.67706 8593 ft 268 kts 17°
2026-05-05 21:56 54.74304 -1.66653 8315 ft 260 kts 17°
2026-05-05 21:56 54.75979 -1.65625 8009 ft 252 kts 17°
2026-05-05 21:56 54.77603 -1.64638 7738 ft 244 kts 17°
2026-05-05 21:57 54.79222 -1.64028 7452 ft 234 kts 355°
2026-05-05 21:57 54.80715 -1.64866 7195 ft 224 kts 324°
2026-05-05 21:57 54.81665 -1.66928 6875 ft 223 kts 292°
2026-05-05 21:57 54.81793 -1.69585 6561 ft 225 kts 259°
2026-05-05 21:58 54.81240 -1.72100 6347 ft 220 kts 249°
2026-05-05 21:58 54.80596 -1.74460 6175 ft 213 kts 248°
2026-05-05 21:58 54.79964 -1.76730 6088 ft 206 kts 248°
2026-05-05 21:58 54.79552 -1.79041 5803 ft 203 kts 278°
2026-05-05 21:59 54.80140 -1.81161 5580 ft 202 kts 324°
2026-05-05 21:59 54.81452 -1.82081 5382 ft 209 kts 345°
2026-05-05 21:59 54.82848 -1.82995 5123 ft 218 kts 338°
2026-05-05 21:59 54.84245 -1.84025 4818 ft 218 kts 339°
2026-05-05 22:00 54.85639 -1.85037 4447 ft 217 kts 339°
2026-05-05 22:00 54.87021 -1.86055 4093 ft 215 kts 339°
2026-05-05 22:00 54.88384 -1.87075 3731 ft 212 kts 339°
2026-05-05 22:00 54.89748 -1.88109 3467 ft 217 kts 339°
2026-05-05 22:01 54.90218 -1.88467 3373 ft 221 kts 339°
2026-05-05 22:01 54.92604 -1.90297 2908 ft 229 kts 339°
2026-05-05 22:01 54.94042 -1.91407 2782 ft 218 kts 339°
2026-05-05 22:01 54.95376 -1.92429 2748 ft 200 kts 342°
2026-05-05 22:02 54.96651 -1.92571 2684 ft 178 kts 25°
2026-05-05 22:02 54.97523 -1.91157 2718 ft 172 kts 55°
2026-05-05 22:02 54.98192 -1.89410 2643 ft 176 kts 58°
2026-05-05 22:02 54.98815 -1.87603 2503 ft 172 kts 59°
2026-05-05 22:03 54.99358 -1.85761 2273 ft 170 kts 63°
2026-05-05 22:03 54.99854 -1.83898 2025 ft 166 kts 64°
2026-05-05 22:03 55.00308 -1.82170 1807 ft 153 kts 63°
2026-05-05 22:03 55.00728 -1.80574 1593 ft 140 kts 63°
2026-05-05 22:04 55.01128 -1.79060 1406 ft 137 kts 63°
2026-05-05 22:04 55.01533 -1.77525 1207 ft 143 kts 64°
2026-05-05 22:04 55.01951 -1.75942 998 ft 144 kts 64°
2026-05-05 22:04 55.02373 -1.74344 795 ft 146 kts 64°
2026-05-05 22:05 55.02794 -1.72749 597 ft 144 kts 64°
2026-05-05 22:05 55.03217 -1.71149 390 ft 146 kts 63°
2026-05-05 22:05 55.03637 -1.69572 258 ft 135 kts 65°
2026-05-05 22:05 55.03941 -1.68413 248 ft 75 kts 65°
2026-05-05 22:06 55.04082 -1.67884 246 ft 37 kts 64°
2026-05-05 22:06 55.04173 -1.67549 243 ft 19 kts 65°
2026-05-05 22:06 55.04218 -1.67398 241 ft 14 kts 50°
2026-05-05 22:06 55.04304 -1.67376 240 ft 13 kts 344°
2026-05-05 22:07 55.04372 -1.67462 240 ft 13 kts 283°
2026-05-05 22:07 55.04361 -1.67561 241 ft 12 kts 240°
2026-05-05 22:07 55.04287 -1.67803 245 ft 21 kts 246°
2026-05-05 22:07 55.04226 -1.68038 246 ft 21 kts 245°
2026-05-05 22:08 55.04166 -1.68265 247 ft 20 kts 245°
2026-05-05 22:08 55.04107 -1.68485 247 ft 20 kts 245°
2026-05-05 22:08 55.04051 -1.68699 248 ft 19 kts 245°
2026-05-05 22:08 55.03995 -1.68905 250 ft 18 kts 244°
2026-05-05 22:09 55.03941 -1.69104 251 ft 18 kts 245°
2026-05-05 22:09 55.03890 -1.69296 253 ft 17 kts 245°
2026-05-05 22:09 55.03840 -1.69486 255 ft 18 kts 245°
2026-05-05 22:09 55.03801 -1.69688 257 ft 17 kts 256°
2026-05-05 22:10 55.03780 -1.69886 259 ft 17 kts 263°
2026-05-05 22:10 55.03774 -1.70084 261 ft 16 kts 271°
2026-05-05 22:10 55.03779 -1.70271 264 ft 15 kts 273°
2026-05-05 22:10 55.03817 -1.70390 266 ft 12 kts 347°
2026-05-05 22:11 55.03896 -1.70385 266 ft 11 kts
2026-05-05 22:11 55.03948 -1.70327 266 ft 9 kts 91°
2026-05-05 22:11 55.03944 -1.70236 266 ft 4 kts 95°
2026-05-05 22:11 55.03944 -1.70224 266 ft 1 kts 94°
2026-05-05 22:12 55.03944 -1.70223 266 ft 0 kts 94°